TimeEDT,TemperatureF,Dew PointF,Humidity,Sea Level PressureIn,VisibilityMPH,Wind Direction,Wind SpeedMPH,Gust SpeedMPH,PrecipitationIn,Events,Conditions,WindDirDegrees,DateUTC
12:15 AM,55.4,46.4,72,29.95,10.0,West,3.5,-,N/A,,Overcast,280,2013-05-24 04:15:00
12:35 AM,55.4,46.4,72,29.95,10.0,West,4.6,-,N/A,,Overcast,280,2013-05-24 04:35:00
12:55 AM,55.4,46.4,72,29.95,10.0,WNW,5.8,-,N/A,,Overcast,300,2013-05-24 04:55:00
1:15 AM,55.4,46.4,72,29.95,10.0,NW,3.5,-,N/A,,Overcast,310,2013-05-24 05:15:00
1:35 AM,55.4,46.4,72,29.94,10.0,WNW,4.6,-,N/A,,Overcast,290,2013-05-24 05:35:00
1:55 AM,55.4,46.4,72,29.94,10.0,Calm,Calm,-,N/A,,Overcast,0,2013-05-24 05:55:00
2:15 AM,53.6,46.4,77,29.94,10.0,Calm,Calm,-,N/A,,Overcast,0,2013-05-24 06:15:00
2:35 AM,53.6,46.4,77,29.94,10.0,Calm,Calm,-,N/A,,Drizzle,0,2013-05-24 06:35:00
2:55 AM,53.6,46.4,77,29.93,10.0,Calm,Calm,-,N/A,,Light Drizzle,0,2013-05-24 06:55:00
3:15 AM,53.6,46.4,77,29.92,10.0,West,3.5,-,N/A,,Overcast,280,2013-05-24 07:15:00
3:35 AM,53.6,46.4,77,29.92,10.0,West,4.6,-,N/A,Rain,Rain,280,2013-05-24 07:35:00
3:55 AM,51.8,48.2,88,29.92,10.0,WNW,4.6,-,N/A,,Overcast,300,2013-05-24 07:55:00
4:15 AM,51.8,48.2,88,29.93,10.0,North,3.5,-,N/A,,Overcast,350,2013-05-24 08:15:00
4:35 AM,51.8,46.4,82,29.94,10.0,NNW,4.6,-,N/A,,Overcast,330,2013-05-24 08:35:00
4:55 AM,51.8,44.6,76,29.95,10.0,NNW,11.5,19.6,N/A,,Light Drizzle,340,2013-05-24 08:55:00
5:15 AM,48.2,42.8,82,29.97,10.0,NNW,8.1,-,N/A,,Overcast,340,2013-05-24 09:15:00
5:35 AM,46.4,39.2,76,29.97,10.0,NNW,9.2,20.7,N/A,,Overcast,330,2013-05-24 09:35:00
5:55 AM,44.6,39.2,81,29.99,10.0,NNW,9.2,18.4,N/A,,Overcast,340,2013-05-24 09:55:00
6:15 AM,44.6,37.4,76,30.00,10.0,North,9.2,-,N/A,,Overcast,350,2013-05-24 10:15:00
6:35 AM,42.8,37.4,81,30.02,10.0,NNW,10.4,16.1,N/A,,Overcast,340,2013-05-24 10:35:00
6:55 AM,42.8,35.6,76,30.03,10.0,NNW,11.5,17.3,N/A,,Overcast,330,2013-05-24 10:55:00
7:15 AM,42.8,35.6,76,30.04,10.0,North,9.2,-,N/A,,Overcast,350,2013-05-24 11:15:00
7:35 AM,42.8,33.8,70,30.06,10.0,NNW,10.4,16.1,N/A,,Overcast,330,2013-05-24 11:35:00
7:55 AM,41.0,33.8,76,30.07,10.0,North,10.4,20.7,N/A,,Overcast,350,2013-05-24 11:55:00
8:15 AM,41.0,33.8,76,30.08,10.0,NW,11.5,17.3,N/A,,Overcast,310,2013-05-24 12:15:00
8:35 AM,42.8,33.8,70,30.08,10.0,NNW,13.8,18.4,N/A,,Overcast,330,2013-05-24 12:35:00
8:55 AM,42.8,33.8,70,30.09,10.0,NNW,12.7,17.3,N/A,,Overcast,340,2013-05-24 12:55:00
9:15 AM,41.0,33.8,76,30.10,10.0,NW,15.0,21.9,N/A,,Overcast,320,2013-05-24 13:15:00
9:35 AM,41.0,33.8,76,30.11,10.0,NW,12.7,18.4,N/A,,Overcast,320,2013-05-24 13:35:00
9:55 AM,41.0,33.8,76,30.12,10.0,NNW,8.1,-,N/A,,Overcast,330,2013-05-24 13:55:00
10:15 AM,41.0,33.8,76,30.12,10.0,NW,11.5,16.1,N/A,,Overcast,320,2013-05-24 14:15:00
10:35 AM,41.0,33.8,76,30.13,10.0,NNW,10.4,17.3,N/A,,Overcast,340,2013-05-24 14:35:00
10:55 AM,41.0,33.8,76,30.14,10.0,NNW,9.2,20.7,N/A,,Overcast,340,2013-05-24 14:55:00
11:15 AM,41.0,33.8,76,30.15,10.0,NNW,10.4,19.6,N/A,,Overcast,340,2013-05-24 15:15:00
11:35 AM,42.8,33.8,70,30.15,10.0,NNW,12.7,17.3,N/A,,Overcast,340,2013-05-24 15:35:00
11:55 AM,42.8,33.8,70,30.16,10.0,North,12.7,18.4,N/A,,Overcast,0,2013-05-24 15:55:00
12:15 PM,41.0,33.8,76,30.18,10.0,NW,11.5,16.1,N/A,,Overcast,310,2013-05-24 16:15:00
12:35 PM,42.8,33.8,70,30.18,10.0,NNW,9.2,-,N/A,,Overcast,330,2013-05-24 16:35:00
12:55 PM,42.8,32.0,66,30.19,10.0,North,10.4,18.4,N/A,,Overcast,350,2013-05-24 16:55:00
1:15 PM,44.6,32.0,61,30.19,10.0,NW,15.0,20.7,N/A,,Overcast,320,2013-05-24 17:15:00
1:35 PM,44.6,30.2,57,30.19,10.0,NNW,10.4,25.3,N/A,,Overcast,340,2013-05-24 17:35:00
1:55 PM,46.4,30.2,53,30.19,10.0,NW,11.5,17.3,N/A,,Overcast,320,2013-05-24 17:55:00
2:15 PM,46.4,30.2,53,30.19,10.0,North,15.0,24.2,N/A,,Mostly Cloudy,350,2013-05-24 18:15:00
2:35 PM,46.4,28.4,50,30.19,10.0,NW,13.8,23.0,N/A,,Scattered Clouds,320,2013-05-24 18:35:00
2:55 PM,46.4,30.2,53,30.19,10.0,NNW,11.5,18.4,N/A,,Mostly Cloudy,330,2013-05-24 18:55:00
3:15 PM,46.4,26.6,46,30.19,10.0,NNW,12.7,19.6,N/A,,Scattered Clouds,340,2013-05-24 19:15:00
3:35 PM,48.2,28.4,46,30.19,10.0,North,11.5,24.2,N/A,,Mostly Cloudy,350,2013-05-24 19:35:00
3:55 PM,50.0,28.4,43,30.19,10.0,WNW,11.5,23.0,N/A,,Mostly Cloudy,300,2013-05-24 19:55:00
4:15 PM,50.0,28.4,43,30.19,10.0,NNW,13.8,24.2,N/A,,Mostly Cloudy,330,2013-05-24 20:15:00
4:35 PM,50.0,26.6,40,30.19,10.0,NNW,18.4,25.3,N/A,,Scattered Clouds,340,2013-05-24 20:35:00
4:55 PM,50.0,26.6,40,30.19,10.0,NW,11.5,21.9,N/A,,Scattered Clouds,320,2013-05-24 20:55:00
5:15 PM,50.0,28.4,43,30.20,10.0,North,10.4,19.6,N/A,,Scattered Clouds,350,2013-05-24 21:15:00
5:35 PM,50.0,26.6,40,30.20,10.0,NNW,12.7,19.6,N/A,,Scattered Clouds,330,2013-05-24 21:35:00
5:55 PM,48.2,26.6,43,30.21,10.0,North,10.4,20.7,N/A,,Scattered Clouds,350,2013-05-24 21:55:00
6:15 PM,50.0,26.6,40,30.21,10.0,NW,10.4,19.6,N/A,,Scattered Clouds,310,2013-05-24 22:15:00
6:35 PM,46.4,26.6,46,30.21,10.0,NW,6.9,-,N/A,,Scattered Clouds,320,2013-05-24 22:35:00
6:55 PM,46.4,26.6,46,30.22,10.0,NNW,9.2,-,N/A,,Scattered Clouds,330,2013-05-24 22:55:00
7:15 PM,46.4,26.6,46,30.22,10.0,NW,12.7,18.4,N/A,,Mostly Cloudy,310,2013-05-24 23:15:00
7:35 PM,46.4,28.4,50,30.22,10.0,West,6.9,-,N/A,,Overcast,280,2013-05-24 23:35:00
7:55 PM,44.6,28.4,53,30.23,10.0,NW,6.9,-,N/A,,Overcast,320,2013-05-24 23:55:00
8:15 PM,44.6,28.4,53,30.24,10.0,NW,9.2,-,N/A,,Overcast,320,2013-05-25 00:15:00
8:35 PM,44.6,28.4,53,30.23,10.0,NW,5.8,-,N/A,,Overcast,310,2013-05-25 00:35:00
8:55 PM,44.6,30.2,57,30.23,10.0,Calm,Calm,-,N/A,,Mostly Cloudy,0,2013-05-25 00:55:00
9:15 PM,44.6,30.2,57,30.23,10.0,NW,3.5,-,N/A,,Mostly Cloudy,310,2013-05-25 01:15:00
9:35 PM,44.6,30.2,57,30.23,10.0,NW,5.8,-,N/A,,Scattered Clouds,310,2013-05-25 01:35:00
9:55 PM,42.8,30.2,61,30.23,10.0,NW,5.8,-,N/A,,Scattered Clouds,310,2013-05-25 01:55:00
10:15 PM,42.8,30.2,61,30.24,10.0,NNW,4.6,-,N/A,,Clear,330,2013-05-25 02:15:00
10:35 PM,42.8,30.2,61,30.24,10.0,NNW,8.1,-,N/A,,Clear,330,2013-05-25 02:35:00
10:55 PM,42.8,30.2,61,30.24,10.0,NNW,10.4,-,N/A,,Clear,330,2013-05-25 02:55:00
11:15 PM,42.8,30.2,61,30.24,10.0,NNW,9.2,-,N/A,,Clear,340,2013-05-25 03:15:00
11:35 PM,42.8,30.2,61,30.24,10.0,North,9.2,-,N/A,,Clear,350,2013-05-25 03:35:00
11:55 PM,41.0,30.2,65,30.24,10.0,NNW,4.6,-,N/A,,Clear,340,2013-05-25 03:55:00